GECAM-B (47235 NORAD) Tracking and Keplerian Element Data
This shows tracking and keplerian element data for the satellite.
Feedback or suggestion? Click here.
Element | Value |
Catalog | 47235 |
Name | GECAM-B |
Epoch Orbit | 1205 |
Epoch Day | 59.83667277 |
Epoch Year | 2021 |
RAAN | 222.3212 |
Inclination | 28.9977 |
Eccentricity | 0.0013252 |
Argument of Perigee | 43.1464 |
Mean Anonmoly | 317.0173 |
Mean Motion | 14.90790879 |
Decay Rate | 4.06E-06 |
L1 | 1 47235U 20094B 21059.83667277 .00000406 00000-0 26557-4 0 9998 |
L2 | 2 47235 28.9977 222.3212 0013252 43.1464 317.0173 14.90790879 12058 |
Live tracking and technical data element details for GECAM-B (NORAD 47235). GECAM-B can be tracked NOW for your location showing map with azimuth and elevation plus other details from your city location.
Track the satellite on the map from your city or location and see movement details for azimuth, elevation, latitude, longitude, range, height, and movement on the map or in text.
IsCatalogInMostPopularTable: catalog: 47235, numindb: 28
Update: records affected: 1
GetName: 47235 GECAM-B
Hit Count: updated at: Mon, 01 Mar 2021 23:17:16 GMT